IBADAL6 Weather Reports


time (UTC)temp
C
wind
direction
speed
KPH
gust
KPH
rain 1hr
cm
rain 24hr
cm
rain mn
cm
humidity
%
barometer
mb
20260507161521 17 124 6.4 12.9 0.00 0.00 0.00 73 1013.1
20260507160020 18 105 4.8 12.9 0.00 0.00 0.00 73 1013.0
20260507154519 18 127 6.4 12.9 0.00 0.00 0.00 72 1013.0
20260507153018 18 130 9.7 14.5 0.00 0.00 0.00 72 1013.5
20260507151513 18 138 8.0 17.7 0.00 0.00 0.00 71 1013.4
20260507150012 18 141 8.0 14.5 0.00 0.00 0.00 70 1013.4
20260507144512 18 146 6.4 16.1 0.00 0.00 0.00 70 1013.4
20260507143010 18 133 4.8 16.1 0.00 0.00 0.00 71 1013.5
20260507141508 18 83 4.8 16.1 0.00 0.00 0.00 68 1013.4
20260507140009 18 70 4.8 17.7 0.00 0.00 0.00 69 1013.7
20260507134506 18 158 8.0 12.9 0.00 0.00 0.00 68 1014.1
20260507133005 18 114 6.4 16.1 0.00 0.00 0.00 68 1014.2
20260507131503 18 97 6.4 14.5 0.00 0.00 0.00 68 1014.4
20260507130001 18 113 8.0 17.7 0.00 0.00 0.00 69 1014.5
20260507124604 18 152 9.7 16.1 0.00 0.00 0.00 69 1014.6
20260507124503 18 150 9.7 16.1 0.00 0.00 0.00 69 1014.6
20260507123202 18 136 8.0 16.1 0.00 0.00 0.00 70 1014.8
20260507121600 18 128 9.7 17.7 0.00 0.00 0.00 72 1014.7
20260507120057 18 134 12.9 17.7 0.00 0.00 0.00 70 1014.8
20260507113128 18 136 8.0 16.1 0.00 0.00 0.00 69 1014.9
20260507111555 18 89 4.8 12.9 0.00 0.00 0.00 68 1014.9
20260507110053 18 125 6.4 16.1 0.00 0.00 0.00 70 1015.1
20260507104600 18 127 8.0 14.5 0.00 0.00 0.00 70 1015.1
20260507103050 18 122 8.0 16.1 0.00 0.00 0.00 71 1015.3
20260507101553 18 97 4.8 12.9 0.00 0.00 0.00 73 1015.2
20260507100054 18 116 6.4 17.7 0.00 0.00 0.00 74 1015.5
20260507094543 17 105 8.0 14.5 0.00 0.00 0.00 75 1015.4
20260507093041 18 139 6.4 12.9 0.00 0.00 0.00 73 1015.4
20260507091543 17 143 8.0 17.7 0.00 0.00 0.00 76 1015.4
20260507090039 17 96 8.0 17.7 0.00 0.00 0.00 76 1015.2
20260507084549 17 99 8.0 17.7 0.00 0.00 0.00 76 1015.1
20260507083033 17 107 4.8 19.3 0.00 0.00 0.00 77 1015.2
20260507081532 17 95 9.7 17.7 0.00 0.00 0.00 77 1015.2
20260507080030 17 70 6.4 14.5 0.00 0.00 0.00 77 1015.2
20260507074530 16 80 3.2 11.3 0.00 0.00 0.00 78 1015.1
20260507073029 17 86 3.2 9.7 0.00 0.00 0.00 78 1015.1
20260507071534 17 74 3.2 11.3 0.00 0.00 0.00 76 1015.0
20260507070026 16 125 1.6 11.3 0.00 0.00 0.00 78 1014.9
20260507064522 16 89 1.6 8.0 0.00 0.00 0.00 78 1014.7
20260507063020 15 243 0.0 1.6 0.00 0.00 0.00 78 1014.5
20260507061520 15 298 0.0 3.2 0.00 0.00 0.00 78 1014.4
20260507060032 15 235 0.0 3.2 0.00 0.00 0.00 80 1014.3
20260507054532 14 302 1.6 4.8 0.00 0.00 0.00 81 1014.1
20260507053020 14 288 0.0 3.2 0.00 0.00 0.00 81 1014.1
20260507051519 13 304 1.6 4.8 0.00 0.00 0.00 82 1013.9
20260507050041 13 304 3.2 4.8 0.00 0.00 0.00 82 1013.7
20260507044522 13 307 3.2 6.4 0.00 0.00 0.00 82 1013.8
20260507041514 13 307 1.6 4.8 0.00 0.00 0.00 82 1013.8
20260507040015 13 307 1.6 3.2 0.00 0.00 0.00 82 1013.7
20260507034512 13 301 1.6 3.2 0.00 0.00 0.00 81 1013.8
20260507033018 13 290 0.0 1.6 0.00 0.00 0.00 81 1013.9
20260507031509 14 304 0.0 3.2 0.00 0.00 0.00 81 1013.9
20260507030010 14 303 1.6 3.2 0.00 0.00 0.00 81 1014.0
20260507024507 14 303 1.6 3.2 0.00 0.00 0.00 81 1013.9
20260507023006 14 297 1.6 4.8 0.00 0.00 0.00 81 1013.9
20260507021510 15 304 0.0 3.2 0.00 0.00 0.00 80 1013.8
20260507020003 15 311 1.6 4.8 0.00 0.00 0.00 80 1014.0
20260507014601 15 29 3.2 6.4 0.00 0.00 0.00 79 1014.1
20260507013058 15 18 1.6 6.4 0.00 0.00 0.00 80 1014.1
20260507011559 15 18 3.2 8.0 0.00 0.00 0.00 81 1014.1
20260507010054 16 34 3.2 12.9 0.00 0.00 0.00 80 1014.1
20260507004552 16 112 1.6 11.3 0.00 0.00 0.00 79 1014.3
20260507003051 16 87 0.0 8.0 0.00 0.00 0.00 78 1014.3
20260507001551 16 103 3.2 8.0 0.00 0.00 0.00 79 1014.4
20260507000053 16 128 3.2 11.3 0.00 0.00 0.00 80 1014.5
20260506234605 16 58 4.8 12.9 0.00 0.00 0.00 80 1014.5
20260506233048 16 63 6.4 11.3 0.00 0.00 0.00 81 1014.4
20260506231547 16 142 1.6 8.0 0.00 0.00 0.00 82 1014.4
20260506230044 16 305 0.0 3.2 0.00 0.00 0.00 79 1014.4
20260506224546 16 302 1.6 3.2 0.00 0.00 0.00 78 1014.3
20260506223048 16 17 1.6 4.8 0.00 0.00 0.00 78 1014.4
20260506220039 16 137 0.0 0.0 0.00 0.00 0.00 77 1014.4
20260506214542 16 137 0.0 0.0 0.00 0.00 0.00 78 1014.3
20260506213038 16 137 0.0 0.0 0.00 0.00 0.00 78 1014.4
20260506211537 16 137 0.0 0.0 0.00 0.00 0.00 78 1014.3
20260506210038 16 137 0.0 1.6 0.00 0.00 0.00 77 1014.2
20260506204548 16 157 0.0 0.0 0.00 0.00 0.00 78 1014.1
20260506203032 16 157 0.0 0.0 0.00 0.00 0.00 77 1013.9
20260506201519 16 157 0.0 0.0 0.00 0.00 0.00 76 1013.6
20260506200014 16 157 0.0 0.0 0.00 0.00 0.00 76 1013.4
20260506194514 16 157 0.0 3.2 0.00 0.00 0.00 75 1013.1
20260506193017 16 145 0.0 3.2 0.00 0.00 0.00 75 1013.1
20260506191512 16 192 1.6 4.8 0.00 0.00 0.00 74 1012.9
20260506190011 17 259 0.0 3.2 0.00 0.00 0.00 73 1012.7
20260506184511 17 176 4.8 8.0 0.00 0.00 0.00 72 1012.5
20260506183010 18 162 1.6 9.7 0.00 0.00 0.00 72 1012.4
20260506181509 18 156 4.8 11.3 0.00 0.00 0.00 73 1012.3
20260506180011 18 114 0.0 8.0 0.00 0.00 0.00 73 1012.3
20260506174508 18 177 3.2 6.4 0.00 0.00 0.00 72 1012.2
20260506173007 19 155 4.8 8.0 0.00 0.00 0.00 71 1012.1
20260506171510 19 229 1.6 9.7 0.00 0.00 0.00 69 1012.0
20260506170008 20 150 3.2 9.7 0.00 0.00 0.00 67 1011.9
20260506164505 20 136 6.4 11.3 0.00 0.00 0.00 65 1011.8
20260506163004 20 219 4.8 11.3 0.00 0.00 0.00 63 1011.9